Weather History for Warner Robins, GA

Change the Weather History Date:

Friday, April 4, 2014

  Actual Average Record
Temperature  
Mean Temperature 72 °F -  
Max Temperature 84 °F 73 °F 87 °F (2012)
Min Temperature 60 °F 49 °F 44 °F (1997)
Cooling Degree Days 7    
Growing Degree Days 22 (Base 50)    
Moisture  
Dew Point 57 °F    
Average Humidity 69    
Maximum Humidity 94    
Minimum Humidity 32    
Precipitation  
Precipitation 0.00 in - - ()
Sea Level Pressure  
Sea Level Pressure 29.98 in    
Wind  
Wind Speed 8 mph (SW)    
Max Wind Speed 15 mph    
Max Gust Speed 22 mph    
Visibility 10 miles    
Events      
Averages and records for this station are not official NWS values.
T = Trace of Precipitation, MM = Missing Value Source: NWS Daily Summary

Daily Weather History Graph

Daily Weather History Graph

Search for Another Location

Airport:

Trip Planner

Search our weather history database for the weather conditions in past years. The results will help you decide how hot, cold, wet, or windy it might be!

Date:

Astronomy

Apr. 04, 2014 Rise Set
Actual Time 7:18 AM EDT 7:56 PM EDT
Civil Twilight 6:53 AM EDT 8:21 PM EDT
Nautical Twilight 6:24 AM EDT 8:50 PM EDT
Astronomical Twilight 5:54 AM EDT 9:20 PM EDT
Moon 10:46 AM EDT (4/4) 12:03 AM EDT (4/4)
Length of Visible Light 13h 27m
Length of Day
12h 37m
Waxing Crescent, 25% of the Moon is Illuminated
Apr 4
Waxing Crescent
Apr 7
First Quarter
Apr 15
Full
Apr 22
Last Quarter
Apr 29
New

Hourly Weather History & Observations

Time (EDT) Temp. Heat Index Dew Point Humidity Pressure Visibility Wind Dir Wind Speed Gust Speed Precip Events Conditions
12:58 AM 67.3 °F - 55.8 °F 66% 30.00 in 10.0 mi South 10.4 mph - N/A   Clear
1:58 AM 64.9 °F - 56.1 °F 73% 29.97 in 10.0 mi South 8.1 mph - N/A   Clear
2:58 AM 63.3 °F - 56.1 °F 77% 29.95 in 10.0 mi SSW 5.8 mph - N/A   Clear
3:58 AM 62.1 °F - 55.8 °F 80% 29.95 in 10.0 mi SW 3.5 mph - N/A   Clear
4:58 AM 62.6 °F - 56.7 °F 81% 29.95 in 10.0 mi Variable 5.8 mph - N/A   Clear
5:58 AM 62.6 °F - 57.2 °F 82% 29.96 in 10.0 mi SSW 5.8 mph - N/A   Clear
6:58 AM 62.6 °F - 57.2 °F 82% 29.96 in 10.0 mi SSW 5.8 mph - N/A   Clear
7:58 AM 60.3 °F - 58.6 °F 94% 29.99 in - SSW 4.6 mph - N/A   Unknown
8:03 AM 60.8 °F - 59.0 °F 94% 29.98 in 10.0 mi SSW 6.9 mph - N/A   Mostly Cloudy
8:12 AM 60.8 °F - 59.0 °F 94% 29.97 in 10.0 mi SSW 6.9 mph - N/A   Overcast
8:22 AM 60.8 °F - 59.0 °F 94% 29.98 in 10.0 mi South 6.9 mph - N/A   Overcast
8:58 AM 62.2 °F - 60.1 °F 93% 29.99 in 10.0 mi SSW 8.1 mph - N/A   Overcast
9:43 AM 64.4 °F - 60.8 °F 88% 30.01 in 10.0 mi WSW 10.4 mph 19.6 mph N/A   Overcast
9:58 AM 63.9 °F - 60.3 °F 88% 30.02 in 10.0 mi WSW 8.1 mph 17.3 mph N/A   Overcast
10:28 AM 64.4 °F - 60.8 °F 88% 30.03 in 10.0 mi WSW 5.8 mph 17.3 mph N/A   Overcast
10:38 AM 66.2 °F - 60.8 °F 83% 30.05 in 10.0 mi WSW 10.4 mph - N/A   Overcast
10:58 AM 66.4 °F - 60.8 °F 82% 30.06 in 10.0 mi SW 8.1 mph - N/A   Overcast
11:23 AM 69.8 °F - 60.8 °F 73% 30.05 in 10.0 mi SSW 11.5 mph 18.4 mph N/A   Overcast
11:48 AM 71.6 °F - 60.8 °F 69% 30.04 in 10.0 mi WSW 11.5 mph 19.6 mph N/A   Overcast
11:58 AM 71.2 °F - 61.2 °F 70% 30.04 in 10.0 mi WSW 15.0 mph 18.4 mph N/A   Overcast
12:13 PM 73.4 °F - 60.8 °F 65% 30.04 in 10.0 mi SW 11.5 mph 19.6 mph N/A   Scattered Clouds
12:58 PM 77.9 °F - 61.2 °F 56% 30.03 in 10.0 mi WSW 12.7 mph 20.7 mph N/A   Scattered Clouds
1:58 PM 79.7 °F - 57.7 °F 47% 30.01 in 10.0 mi SW 8.1 mph - N/A   Clear
2:58 PM 81.7 °F 81.2 °F 55.2 °F 40% 29.97 in 10.0 mi SSW 10.4 mph - N/A   Clear
3:58 PM 84.0 °F - 52.2 °F 33% 29.95 in 10.0 mi Variable 6.9 mph 21.9 mph N/A   Clear
4:58 PM 82.9 °F - 49.8 °F 32% 29.94 in 10.0 mi West 10.4 mph - N/A   Clear
5:58 PM 82.0 °F - 50.0 °F 33% 29.92 in 10.0 mi West 9.2 mph 17.3 mph N/A   Clear
6:58 PM 79.9 °F - 51.1 °F 37% 29.94 in 10.0 mi WSW 13.8 mph - N/A   Partly Cloudy
7:58 PM 77.0 °F - 52.5 °F 42% 29.91 in 10.0 mi SW 8.1 mph - N/A   Partly Cloudy
8:58 PM 73.9 °F - 52.7 °F 47% 29.91 in 10.0 mi WSW 4.6 mph - N/A   Scattered Clouds
9:58 PM 72.0 °F - 53.6 °F 52% 29.94 in 10.0 mi West 5.8 mph - N/A   Clear
10:58 PM 68.0 °F - 54.9 °F 63% 29.96 in 10.0 mi NW 8.1 mph - N/A   Clear
11:58 PM 64.9 °F - 56.1 °F 73% 29.98 in 10.0 mi WNW 5.8 mph - N/A   Clear